Content
SEND FEEDBACK

Daily
Averages
Monthly
Summary
United States of America

ST. LOUIS, MISSOURI


Home > North America > United States > Missouri
Elevation: 535 feet     Latitude: 38 45N     Longitude: 090 22W

WEATHER
 
SELECT A DAY
Number of Records: 196,500;   Date Range: 1/1/95 - 8/30/14
 
SHARE

PRINT THIS DATA

[ ← Previous Day ]
WEATHER ALMANAC - AUGUST 25, 2013
[ Next Day → ]
[ °C ]   °F
Weather ElementAverageHighLow
Temperature78.8 °F91.9 °F (3:54 pm)62.1 °F (6:54 am)
Dewpoint65.1 °F70 °F (6:54 pm)61 °F (6:54 am)
Humidity66.5 %97 % (4:54 am)37 % (4:54 pm)
Barometer30.18 in30.25 in (7:54 am)30.14 in (3:54 pm)
Wind Speed3.1 mph9.2 mph (12:54 pm)
Weather ElementAverage
Visibility9.6 mi
Wind DirectionESE (111.3 °)

Weather ElementTotal
Precipitation---
Cooling Degree Days12 (Base 65)
Growing Degree Days27 (Base 50)
Averaged from 23 records on August 25, 2013
WEATHER CONDITIONS BREAKOUT
WIND DIRECTION BREAKOUT
WEATHER BY HOUR - AUGUST 25, 2013
[ °C ]   °F
Local TimeTemperatureDewpointHumidityBarometerVisibilityWind DirectionWind SpeedGust SpeedPrecipitationEventsConditions
1:54 AM69.1 °F63.0 °F81 %30.17 in10.0 miCalmClear
2:54 AM66.9 °F63.0 °F87 %30.18 in9.0 miCalmClear
3:54 AM66.0 °F63.0 °F90 %30.19 in8.0 miCalmClear
4:54 AM63.0 °F62.1 °F97 %30.20 in4.0 miCalmClear
5:54 AM63.0 °F62.1 °F97 %30.22 in10.0 miCalmClear
6:54 AM62.1 °F61.0 °F96 %30.24 in10.0 miCalmClear
7:54 AM69.1 °F64.9 °F87 %30.25 in10.0 miCalmScattered Clouds
8:54 AM75.0 °F64.9 °F71 %30.24 in10.0 miCalmScattered Clouds
9:54 AM82.0 °F66.0 °F58 %30.23 in10.0 miSouth (190°)4.6 mphScattered Clouds
10:54 AM86.0 °F66.0 °F51 %30.22 in10.0 miSSW (200°)6.9 mphPartly Cloudy
11:54 AM88.0 °F64.0 °F45 %30.20 in10.0 miSE (130°)4.6 mphScattered Clouds
12:54 PM90.0 °F64.9 °F43 %30.19 in10.0 miWSW (250°)9.2 mphPartly Cloudy
1:54 PM91.0 °F64.0 °F41 %30.17 in10.0 miVariable4.6 mphScattered Clouds
2:54 PM91.0 °F64.0 °F41 %30.16 in10.0 miNW (310°)8.1 mphPartly Cloudy
3:54 PM91.9 °F63.0 °F38 %30.14 in10.0 miWest (280°)4.6 mphScattered Clouds
4:54 PM91.9 °F62.1 °F37 %30.14 in10.0 miNNW (330°)5.8 mphScattered Clouds
5:54 PM91.0 °F62.1 °F38 %30.14 in10.0 miCalmScattered Clouds
6:54 PM84.9 °F70.0 °F61 %30.14 in10.0 miCalmClear
7:54 PM80.1 °F70.0 °F71 %30.15 in10.0 miSSE (150°)3.5 mphScattered Clouds
8:54 PM77.0 °F69.1 °F76 %30.15 in10.0 miSouth (180°)3.5 mphClear
9:54 PM77.0 °F68.0 °F74 %30.16 in10.0 miSouth (170°)3.5 mphClear
10:54 PM78.1 °F69.1 °F74 %30.16 in10.0 miSouth (170°)5.8 mphClear
11:54 PM78.1 °F70.0 °F76 %30.17 in10.0 miSSW (200°)5.8 mphClear
Hourly data recorded from KSUS, located miles away from St. Louis, Missouri







STORIES FROM OUR PARTNERS